Weather History for KBLH - February, 2013

Change the Weather History Date:

Monday, February 18, 2013

  Actual Average (KNYL) Record (KNYL)
Temperature  
Mean Temperature 59 °F 62 °F  
Max Temperature 73 °F 74 °F 90 °F (1981)
Min Temperature 45 °F 51 °F 30 °F (1910)
Degree Days  
Heating Degree Days 6 4  
Month to date heating degree days 82  
Since 1 July heating degree days 590  
Cooling Degree Days 0 1  
Month to date cooling degree days 17  
Year to date cooling degree days 23  
Growing Degree Days 9 (Base 50)    
Moisture  
Dew Point 29 °F    
Average Humidity 34    
Maximum Humidity 53    
Minimum Humidity 16    
Precipitation  
Precipitation 0.00 in 0.02 in 1.00 in (1889)
Month to date precipitation 0.25  
Year to date precipitation 0.62  
Sea Level Pressure  
Sea Level Pressure 29.92 in    
Wind  
Wind Speed 4 mph (North)    
Max Wind Speed 7 mph    
Max Gust Speed -    
Visibility 10 miles    
Events      
T = Trace of Precipitation, MM = Missing Value Source: NWS Daily Summary

Daily Weather History Graph

Daily Weather History Graph

Search for Another Location

Airport or City:

Trip Planner

Search our weather history database for the weather conditions in past years. The results will help you decide how hot, cold, wet, or windy it might be!

Date:

Astronomy

Feb. 18, 2013 Rise Set
Actual Time 6:19 AM PST 5:26 PM PST
Civil Twilight 5:54 AM PST 5:51 PM PST
Nautical Twilight 5:25 AM PST 6:20 PM PST
Astronomical Twilight 4:56 AM PST 6:49 PM PST
Moon 11:23 AM PST (2/18) 12:55 AM PST (2/18)
Length of Visible Light 11h 57m
Length of Day
11h 06m
First Quarter, 59% of the Moon is Illuminated
Feb 18
First Quarter
Feb 25
Full
Mar 4
Last Quarter
Mar 11
New
Mar 19
First Quarter

Hourly Weather History & Observations

Time (PST) Temp. Windchill Dew Point Humidity Pressure Visibility Wind Dir Wind Speed Gust Speed Precip Events Conditions
12:52 AM 53.1 °F - 27.0 °F 37% 29.91 in 10.0 mi NNW 6.9 mph - N/A   Clear
2:52 AM 48.0 °F - 28.9 °F 48% 29.91 in 10.0 mi NNW 5.8 mph - N/A   Clear
3:52 AM 46.0 °F 44.8 °F 28.0 °F 50% 29.92 in 10.0 mi NW 3.5 mph - N/A   Clear
4:52 AM 45.0 °F 41.8 °F 28.9 °F 53% 29.94 in 10.0 mi NW 5.8 mph - N/A   Clear
6:52 AM 45.0 °F 41.8 °F 28.9 °F 53% 29.98 in 10.0 mi NW 5.8 mph - N/A   Clear
7:52 AM 53.1 °F - 30.9 °F 43% 30.01 in 10.0 mi NNW 3.5 mph - N/A   Clear
8:52 AM 59.0 °F - 28.0 °F 31% 30.02 in 10.0 mi Calm Calm - N/A   Clear
9:52 AM 62.1 °F - 32.0 °F 32% 30.01 in 10.0 mi East 3.5 mph - N/A   Clear
10:52 AM 66.9 °F - 27.0 °F 22% 30.00 in 10.0 mi NE 3.5 mph - N/A   Clear
11:52 AM 71.1 °F - 25.0 °F 18% 29.96 in 10.0 mi ENE 6.9 mph - N/A   Clear
12:52 PM 71.1 °F - 21.9 °F 16% 29.94 in 10.0 mi Variable 3.5 mph - N/A   Clear
1:52 PM 72.0 °F - 24.1 °F 17% 29.92 in 10.0 mi Calm Calm - N/A   Clear
2:52 PM 73.9 °F - 27.0 °F 18% 29.90 in 10.0 mi Calm Calm - N/A   Clear
3:52 PM 73.0 °F - 28.0 °F 19% 29.88 in 10.0 mi Calm Calm - N/A   Clear
5:52 PM 66.0 °F - 32.0 °F 28% 29.85 in 10.0 mi ESE 3.5 mph - N/A   Clear
6:52 PM 62.1 °F - 30.9 °F 31% 29.86 in 10.0 mi ESE 3.5 mph - N/A   Clear
7:52 PM 59.0 °F - 32.0 °F 36% 29.86 in 10.0 mi SW 3.5 mph - N/A   Clear
8:52 PM 57.9 °F - 32.0 °F 37% 29.86 in 10.0 mi Calm Calm - N/A   Clear
9:52 PM 54.0 °F - 30.0 °F 40% 29.86 in 10.0 mi North 3.5 mph - N/A   Clear
10:52 PM 54.0 °F - 30.0 °F 40% 29.86 in 10.0 mi Calm Calm - N/A   Clear
11:52 PM 51.1 °F - 30.0 °F 44% 29.85 in 10.0 mi Calm Calm - N/A   Clear